ZHUHAI-1 01 (CAS 4A) (42761 NORAD) Tracking and Keplerian Element Data

This shows tracking and keplerian element data for the satellite.

Feedback or suggestion? Click here.




ElementValue
Catalog42761
NameZHUHAI-1 01 (CAS 4A)
Epoch Orbit7801
Epoch Day317.54608584
Epoch Year2018
RAAN342.9186
Inclination43.0211
Eccentricity0.0011717
Argument of Perigee321.5408
Mean Anonmoly170.5147
Mean Motion15.09496013
Decay Rate3.67E-06
L11 42761U 17034D 18317.54608584 .00000367 00000-0 36053-4 0 9992
L22 42761 43.0211 342.9186 0011717 321.5408 170.5147 15.09496013 78015

Live tracking and technical data element details for ZHUHAI-1 01 (CAS 4A) (NORAD 42761). ZHUHAI-1 01 (CAS 4A) can be tracked NOW for your location showing map with azimuth and elevation plus other details from your city location.

Track the satellite on the map from your city or location and see movement details for azimuth, elevation, latitude, longitude, range, height, and movement on the map or in text.







IsCatalogInMostPopularTable: catalog: 42761, numindb: 149
Update: records affected: 1



GetName: 42761 ZHUHAI-1 01 (CAS 4A)

Hit Count: updated at: Wed, 14 Nov 2018 15:47:30 GMT